Theta_e
301 301 301 301 301 302 303 303 302 302 302 299 296 298 292 293 290 305 306 309 304 294 286 288 286 285 288 292 291 292 291 290 291 290 292 289 292 289 288 288 287 289 288 288 288 289 285 287 283 285 286 287 290 292 293 295 294 295 289 294 293 304 288 284 286 287 287 290 291 292 292 291 289 290 289 288 287 287 285 280 282 283 283 283 280 280 282
301 301 301 301 301 301 302 302 302 302 302 299 298 294 292 293 292 296 307 309 304 290 282 282 284 286 288 288 287 292 290 290 289 289 290 288 288 289 289 289 291 288 291 290 287 291 280 286 287 284 287 286 293 293 293 295 292 292 290 289 297 290 289 286 280 279 281 284 286 286 290 291 286 284 287 288 288 290 289 288 286 284 283 285 282 278 284
300 300 300 300 301 301 302 302 302 302 302 302 298 291 294 292 296 295 300 305 299 287 288 284 284 285 285 285 285 287 289 291 291 290 288 291 290 289 287 291 292 289 291 290 291 292 288 284 290 289 288 289 294 293 293 295 293 295 297 309 299 290 289 285 280 275 273 273 275 277 280 284 285 289 290 291 289 288 288 284 283 282 284 286 282 278 284
301 300 300 300 300 301 301 302 302 302 302 303 299 295 292 290 282 292 295 298 296 294 295 291 286 284 285 283 285 288 286 291 293 292 290 292 291 291 291 291 292 290 290 288 289 289 292 288 287 286 287 289 292 293 294 295 295 300 306 305 297 291 294 288 281 280 279 280 280 284 286 286 284 287 289 288 290 289 288 284 281 282 281 284 286 293 292
301 300 300 300 300 300 301 302 302 302 302 303 298 296 293 294 285 285 284 291 292 290 292 288 288 284 287 283 288 285 287 289 291 295 285 292 291 291 290 291 288 288 289 286 288 290 290 292 290 289 288 290 291 294 295 295 298 306 304 304 296 292 289 291 287 286 285 286 287 288 289 285 285 286 287 288 289 289 286 283 281 285 284 281 286 293 296
301 300 300 300 300 300 301 301 301 302 302 302 300 293 296 286 290 290 292 286 284 284 286 291 287 288 287 285 289 286 286 288 286 291 293 295 293 287 290 291 291 291 290 289 283 286 289 291 287 292 291 291 293 292 294 294 301 304 299 302 295 289 285 291 291 289 290 289 288 289 288 286 286 287 287 288 288 289 287 285 287 287 284 283 289 294 296
301 300 300 300 300 300 300 301 301 302 301 301 295 292 296 295 293 292 295 285 287 286 288 289 287 286 287 285 287 285 286 285 289 290 291 292 291 291 280 287 292 292 293 290 286 287 283 282 290 291 289 291 290 289 293 297 301 299 298 296 295 289 285 291 291 289 289 291 292 292 288 287 287 288 287 287 288 287 288 288 289 289 286 288 295 294 297
300 300 300 300 300 300 300 300 301 301 301 299 294 294 291 289 286 285 293 289 286 287 287 287 288 286 291 284 286 287 287 283 284 291 291 285 290 295 289 290 293 293 294 293 289 291 290 289 284 290 290 287 289 290 293 292 296 297 295 297 296 291 285 292 289 284 288 292 294 292 289 288 286 287 287 287 288 287 288 289 290 291 292 295 295 294 293
300 300 300 299 299 300 300 300 301 301 301 294 291 292 296 293 295 294 288 285 286 288 288 287 288 286 289 286 288 288 289 289 293 293 297 292 290 292 289 292 292 295 294 294 293 296 295 294 294 294 294 287 294 290 292 296 294 295 294 295 295 292 286 291 288 282 284 291 292 293 291 288 286 285 287 287 287 287 287 287 289 289 290 292 291 290 290
301 300 300 300 299 299 299 300 301 301 301 294 292 289 295 295 298 298 292 285 291 287 289 290 290 286 291 291 291 289 291 293 295 285 292 297 296 295 295 294 292 291 292 292 294 298 298 299 299 299 296 296 295 295 295 294 293 292 293 293 288 287 287 284 281 281 281 288 292 292 289 286 283 281 285 288 287 287 289 290 291 291 295 290 287 291 295
301 300 300 300 299 299 299 299 300 301 299 293 291 290 293 291 290 292 293 285 287 289 289 288 288 291 290 292 292 296 293 295 296 287 285 296 298 301 300 296 292 288 291 295 301 302 302 302 301 300 298 296 296 296 296 297 295 294 293 290 290 291 289 285 285 282 282 287 290 288 282 277 277 284 291 291 289 289 289 288 290 293 298 294 295 295 296
301 300 300 300 299 299 299 299 300 300 300 297 296 293 294 295 294 293 289 285 286 291 290 287 289 291 291 295 297 295 293 292 293 296 292 294 298 301 301 299 295 286 295 301 302 304 305 304 302 300 299 298 297 297 296 295 296 294 293 291 288 288 285 284 286 283 282 285 285 281 274 275 286 291 298 298 294 292 290 291 292 295 294 293 294 297 305
301 300 300 300 299 299 299 299 300 300 300 298 296 292 295 297 293 291 290 289 286 289 287 289 293 294 295 294 294 294 295 297 297 296 297 295 296 299 301 298 295 298 304 302 303 301 297 294 294 295 295 296 296 296 295 293 294 294 293 295 291 283 284 284 283 283 283 284 279 276 276 284 292 294 296 297 296 293 294 292 293 294 293 295 295 303 306
301 301 300 300 300 300 299 299 299 300 300 299 295 294 295 295 292 291 292 288 287 291 291 289 291 291 293 294 295 296 296 295 295 294 294 297 297 298 301 304 303 303 303 303 300 298 290 288 284 288 289 291 290 288 292 294 294 293 295 295 294 290 287 284 283 285 281 278 277 279 285 288 290 292 295 293 293 292 289 284 290 294 295 293 294 300 306
301 301 301 300 300 299 299 299 299 299 299 300 296 294 294 295 294 293 294 293 286 290 291 285 289 291 293 294 296 293 291 291 292 291 297 301 300 303 303 304 305 305 305 303 296 296 290 286 283 281 283 283 280 281 290 289 294 295 295 294 295 292 288 286 286 283 281 279 280 279 279 278 280 288 295 298 297 294 291 288 287 293 294 293 291 295 303
302 301 301 301 300 300 299 299 299 299 299 300 296 294 294 297 297 296 294 292 290 284 287 295 295 293 293 294 296 294 291 290 290 289 290 293 298 301 304 305 306 307 307 302 298 292 286 286 282 282 280 281 283 285 282 290 288 292 293 294 294 292 292 289 286 283 282 280 277 277 277 277 284 290 295 297 298 297 293 287 284 288 293 299 294 294 292
302 302 302 301 300 300 300 299 299 299 299 299 295 294 293 297 294 294 292 293 294 287 295 296 297 296 294 294 296 293 295 289 294 287 286 290 295 299 302 305 305 306 304 296 293 290 286 283 284 284 283 289 284 280 287 287 284 287 293 293 292 289 284 284 282 281 279 278 279 279 277 282 293 294 295 297 298 295 290 281 278 288 295 299 299 298 294
302 302 302 301 300 300 300 299 299 299 299 300 296 293 292 296 298 296 294 293 289 289 294 297 294 291 291 294 293 299 300 298 294 294 290 294 296 297 300 302 299 303 304 291 292 286 285 282 281 281 280 289 291 289 280 285 283 280 284 284 284 284 284 283 283 279 280 282 278 277 280 287 292 296 299 297 297 291 282 279 284 291 295 300 300 300 296
302 302 302 301 300 300 300 299 299 299 299 299 297 294 293 295 296 295 294 293 292 286 294 297 297 295 298 301 298 302 303 299 296 288 287 287 294 302 302 302 303 293 300 290 289 286 286 283 287 285 283 284 289 282 287 284 281 285 285 284 285 282 282 282 282 282 280 276 280 279 280 287 297 298 300 299 295 285 280 287 292 296 300 303 302 303 299
302 302 302 301 301 300 300 300 299 299 299 299 297 291 293 295 296 295 291 288 291 289 292 293 296 295 300 296 293 294 297 298 298 292 290 287 297 301 292 288 294 298 292 291 284 290 284 284 284 289 283 285 287 294 285 285 288 285 285 284 281 283 283 281 282 281 279 278 277 280 280 290 299 300 296 296 288 285 288 296 302 301 302 303 303 304 303
302 302 301 301 301 301 300 299 299 299 299 299 298 293 291 294 295 295 297 294 289 285 288 297 299 298 299 297 299 299 298 295 297 295 298 296 300 294 285 286 291 295 290 289 287 286 289 284 285 287 290 291 290 287 284 283 287 294 291 286 287 288 285 283 281 282 280 279 278 279 283 288 298 296 288 295 297 296 297 301 299 303 302 303 303 304 303
302 301 301 301 301 300 300 300 299 299 299 299 298 295 290 294 295 296 297 295 289 286 290 295 298 297 299 301 302 302 302 302 303 305 301 293 298 295 292 298 298 299 299 297 289 289 291 291 291 286 286 288 291 287 287 281 283 289 295 291 286 291 287 286 286 287 284 283 281 288 290 296 303 302 300 301 304 305 304 303 303 302 304 304 304 305 304
302 301 301 301 301 300 300 300 299 299 299 299 297 294 290 292 293 296 294 289 292 293 296 295 298 299 301 302 305 305 305 307 306 305 307 297 289 296 299 297 297 304 303 302 296 292 292 292 288 293 288 291 289 286 286 286 284 289 288 293 292 299 297 294 292 293 294 294 296 300 300 301 302 302 303 304 304 306 306 306 305 304 305 305 306 306 306
301 301 301 301 301 301 300 300 299 299 299 299 298 294 292 293 293 293 292 291 288 287 291 294 293 288 294 299 303 305 306 306 306 307 310 303 289 288 297 303 307 303 301 302 303 298 293 290 293 294 287 291 292 283 284 285 286 291 286 286 291 296 297 292 291 293 289 288 290 297 301 302 301 301 303 303 304 305 305 305 304 305 305 306 307 306 306
301 301 301 301 301 301 300 300 300 299 299 298 298 297 296 294 293 293 289 284 285 287 286 288 290 298 302 305 305 303 302 305 306 306 308 308 300 294 294 302 309 302 299 301 303 297 288 291 293 290 286 293 293 285 289 285 286 292 283 286 288 291 297 292 292 289 284 286 293 298 300 303 304 300 300 302 303 303 303 304 305 304 305 305 307 307 307
301 301 301 301 301 301 300 300 299 298 298 298 298 294 292 291 293 294 292 292 292 291 286 285 292 302 303 301 299 302 305 305 305 304 307 309 307 303 302 304 306 306 305 304 302 296 290 289 290 291 289 289 298 288 288 292 292 295 290 289 295 295 297 288 294 291 294 295 297 298 298 301 303 303 302 302 302 303 303 303 303 304 305 305 307 306 307
301 301 301 301 301 301 301 300 299 298 298 298 296 295 293 293 295 293 290 291 290 285 287 286 291 297 300 298 302 304 306 304 303 300 300 303 305 306 306 303 301 302 302 301 300 292 291 290 288 292 294 293 298 296 294 291 294 289 289 296 300 296 291 295 293 289 288 289 294 296 290 291 299 301 303 304 304 303 302 301 303 304 305 304 306 306 305
300 300 301 301 301 301 300 300 299 299 299 299 298 296 295 293 294 295 295 294 292 285 286 287 289 294 301 297 302 303 303 304 302 301 300 299 303 303 303 301 299 298 297 296 289 290 287 288 291 290 292 300 296 292 299 298 296 291 292 295 298 295 296 291 286 287 286 291 294 298 294 296 299 301 303 303 303 302 302 302 303 304 304 304 304 305 305
300 300 301 301 301 300 300 299 299 299 299 299 296 294 293 295 295 297 298 299 297 294 291 291 294 291 286 293 302 302 304 304 302 300 298 298 300 301 300 300 298 298 298 292 288 288 287 287 288 292 293 298 296 291 295 289 288 287 292 297 300 301 301 299 297 293 295 296 298 299 296 298 301 302 303 304 304 304 303 303 303 303 304 303 303 304 305
301 301 301 301 301 300 300 300 300 299 299 296 294 289 286 296 301 298 301 302 300 299 289 285 283 284 294 297 297 301 302 303 300 298 298 298 299 298 298 298 296 299 296 290 289 289 286 289 287 294 303 301 294 289 289 287 288 291 295 298 301 301 303 304 302 299 298 301 301 300 300 302 302 302 303 303 305 305 304 303 303 302 303 303 304 304 304
301 301 301 301 301 300 301 300 300 300 299 294 290 281 284 288 297 303 301 300 298 294 287 286 285 288 289 295 297 298 300 299 297 296 297 296 295 295 296 298 296 295 289 287 290 289 288 288 290 296 299 296 289 287 287 287 287 289 297 300 301 301 302 303 301 301 301 301 301 302 302 300 301 302 303 302 303 303 302 303 303 305 303 303 304 303 304
301 301 301 301 300 300 300 301 300 300 295 293 289 286 288 294 299 301 301 301 297 292 287 283 283 283 285 290 296 298 299 299 299 298 294 297 296 298 295 297 293 296 290 287 287 288 288 287 289 293 294 297 292 288 286 283 285 288 294 297 298 301 303 301 302 303 302 302 302 301 301 301 300 300 299 302 301 302 303 303 303 302 303 302 303 303 303
301 301 300 300 300 300 301 301 301 299 295 297 300 300 300 300 301 301 301 299 295 288 289 286 282 284 283 288 294 296 300 296 294 295 293 295 296 296 292 294 296 296 300 291 288 287 288 288 286 288 293 295 289 289 287 284 287 290 294 297 298 301 301 301 300 301 303 302 299 297 296 298 300 301 301 301 301 301 301 302 303 301 301 301 301 302 303
301 300 300 300 300 301 301 301 302 301 300 297 292 294 297 300 300 301 299 294 290 289 289 284 281 281 283 289 289 293 299 293 290 292 287 291 298 294 288 292 291 289 289 287 288 288 285 287 288 287 291 290 286 286 286 286 289 293 296 297 299 300 300 299 300 301 302 302 301 300 301 300 300 300 300 299 299 299 299 300 301 302 300 300 299 300 301
300 300 300 300 301 301 302 301 294 295 292 293 293 294 296 304 304 304 299 293 284 283 284 283 284 281 281 281 281 289 297 294 289 289 288 289 295 293 291 287 286 286 288 293 285 286 286 287 288 288 284 287 287 286 282 286 290 292 296 298 298 299 298 298 299 301 301 301 301 300 299 299 300 299 299 299 300 299 300 298 299 301 299 299 299 300 300
300 300 300 301 301 301 296 298 294 292 290 289 292 301 305 305 304 300 298 298 294 287 286 284 284 280 281 280 281 287 296 291 291 291 291 286 289 293 288 284 285 285 291 287 284 287 285 290 289 284 281 285 283 285 286 288 293 295 296 297 296 297 296 298 299 299 300 300 300 299 299 298 299 298 298 299 299 297 296 296 296 298 299 297 298 299 300
299 299 301 300 297 296 292 291 295 295 294 297 300 303 304 304 302 301 298 296 298 299 291 285 283 283 284 282 283 284 291 282 288 288 285 287 285 283 283 283 281 283 285 284 284 285 288 291 285 284 284 283 284 286 291 291 294 296 296 297 298 298 299 299 299 298 297 297 298 297 296 296 297 297 297 297 296 297 297 297 297 298 298 298 298 298 299
299 299 294 292 290 285 286 291 294 297 301 300 301 297 293 294 286 287 290 288 289 296 287 288 283 283 285 284 281 288 288 283 288 286 283 284 285 284 282 283 283 284 281 281 283 289 286 285 286 284 282 283 287 290 292 293 294 295 295 296 296 298 301 300 299 299 297 295 295 296 296 295 296 295 297 296 296 296 297 297 298 297 297 297 299 300 298
296 292 289 288 286 283 285 290 297 300 296 298 296 288 283 286 284 283 283 286 287 286 285 286 284 284 283 282 283 289 287 284 283 282 284 285 285 282 283 282 285 282 280 280 282 290 285 281 281 281 280 281 290 292 294 292 293 294 295 296 296 298 301 300 300 300 297 295 295 294 295 293 295 295 295 296 296 296 296 297 297 297 297 298 299 298 298
289 286 283 283 282 284 292 295 298 294 294 288 288 284 282 285 283 279 284 284 283 283 286 284 287 287 287 284 283 283 290 286 282 282 283 286 288 284 284 282 283 281 278 278 280 284 281 280 279 280 279 280 287 292 293 294 295 294 295 296 296 297 297 298 298 298 297 296 296 296 295 294 296 297 296 295 296 297 298 297 296 296 297 299 298 299 298
286 285 283 281 285 287 290 292 292 291 288 285 284 284 282 280 283 283 283 281 282 282 288 287 289 289 289 288 286 284 290 295 290 289 285 286 286 286 281 282 283 281 277 277 281 284 281 279 277 278 281 285 290 292 293 294 295 296 296 296 296 296 297 297 297 298 297 297 295 296 295 296 296 297 297 297 296 295 295 295 295 295 297 298 298 298 299
288 286 287 290 291 292 291 287 286 285 285 286 282 279 280 280 282 283 283 280 280 282 286 289 284 286 287 291 289 289 287 293 289 286 285 284 285 286 281 282 282 277 276 279 282 281 279 277 276 280 282 287 291 292 294 295 295 296 296 295 296 296 296 297 297 297 297 297 296 296 295 294 295 295 295 295 295 295 295 296 297 298 299 297 299 299 299
297 296 294 289 287 284 285 282 283 283 279 280 278 277 279 279 280 280 279 283 285 286 284 294 291 291 293 297 294 293 288 292 291 286 285 283 283 283 281 280 279 278 278 280 280 277 277 275 276 278 285 289 293 293 294 296 295 295 295 295 295 297 296 297 296 297 296 297 296 296 295 295 295 296 296 296 296 296 296 296 298 299 299 300 300 299 299
292 291 287 284 284 284 284 277 285 283 280 281 278 275 277 278 280 280 280 279 280 282 285 289 289 289 286 287 290 286 288 291 287 285 285 284 284 281 279 279 277 280 283 280 278 278 274 275 278 282 288 292 296 294 295 295 295 295 295 296 296 296 297 295 295 295 296 296 296 296 295 295 295 296 297 297 298 297 296 296 297 298 298 299 299 298 298
284 281 282 281 280 282 281 273 283 281 276 278 282 279 279 277 276 276 280 283 286 288 290 290 291 291 287 289 289 288 288 288 288 285 282 284 283 281 280 278 280 281 280 277 278 276 279 280 281 286 290 292 293 294 295 295 295 296 295 296 296 296 296 297 297 294 295 296 295 295 296 294 295 295 296 296 296 297 298 298 297 298 299 299 298 298 297
281 281 279 276 273 277 280 277 280 278 281 283 281 281 282 284 283 285 287 288 289 290 290 291 292 291 287 290 286 285 286 285 285 284 284 283 279 279 281 282 281 277 276 276 276 277 277 279 280 287 291 292 294 295 295 295 296 296 296 295 295 297 297 296 296 295 295 295 295 295 295 295 295 295 295 295 297 297 297 298 298 299 299 299 298 298 298
282 283 282 280 276 278 283 279 280 282 283 282 284 286 287 288 289 290 291 291 288 291 292 294 293 291 289 287 288 288 286 286 285 284 284 281 280 281 283 281 278 276 275 274 274 274 279 281 284 288 290 292 293 294 295 296 297 296 296 295 294 296 297 297 297 296 297 295 294 295 295 295 294 295 295 296 296 296 296 297 298 298 299 299 298 297 298
279 283 282 274 273 279 280 282 284 283 285 286 286 287 287 288 287 288 291 292 291 291 292 290 287 285 283 285 289 286 285 285 285 284 285 284 284 280 277 277 276 278 278 277 275 277 277 281 286 290 291 293 294 295 295 295 295 296 296 295 296 296 297 297 297 297 297 295 295 294 294 295 296 295 296 296 296 296 297 298 299 298 298 298 298 297 298
283 280 278 277 280 282 282 283 283 281 284 285 286 287 287 287 288 290 292 292 290 290 292 290 284 285 283 284 285 285 285 286 284 284 286 283 281 277 276 275 276 278 280 281 281 279 284 288 288 290 291 292 292 295 295 297 297 297 297 297 297 297 296 296 297 297 297 296 295 295 295 295 294 295 295 296 297 296 297 298 298 299 299 298 298 298 298
281 279 281 280 279 280 282 283 282 281 282 284 285 285 286 286 287 290 293 292 292 289 286 286 286 286 285 285 282 282 283 284 285 285 284 282 282 281 279 277 279 280 282 283 283 285 289 289 290 292 292 293 294 295 294 295 295 296 297 297 297 297 297 297 297 297 296 296 296 296 296 295 294 295 297 297 297 297 296 296 298 298 298 298 299 299 298
283 281 279 280 279 279 281 278 278 278 281 282 283 284 285 285 287 288 292 292 291 286 284 284 284 284 282 280 281 280 282 285 284 282 283 282 284 282 279 280 283 284 284 288 290 291 292 292 291 291 292 293 293 293 295 295 295 295 297 298 298 298 297 298 298 296 297 297 296 293 295 295 296 295 295 297 297 297 296 296 296 299 299 299 299 298 298
279 277 278 279 281 281 282 282 283 283 283 284 284 286 287 286 288 289 292 291 287 285 283 284 283 282 279 279 280 282 284 284 282 283 283 284 285 284 283 283 285 286 288 288 291 292 293 295 295 293 293 293 293 294 294 295 296 295 296 297 298 297 297 297 297 297 297 297 296 296 297 296 295 295 297 297 296 296 295 295 295 296 298 299 299 300 300
Wind_Speed
21 22 22 23 24 23 24 25 26 23 23 11 9 5 3 3 4 0 5 4 7 5 3 2 2 4 2 3 8 8 10 8 5 5 4 5 6 3 5 5 2 6 5 5 5 4 4 4 3 4 7 9 16 9 7 8 4 4 2 0 4 9 2 4 1 1 2 3 1 4 6 4 2 1 1 4 3 6 7 3 5 6 1 2 1 2 3
21 22 22 23 23 24 24 26 26 24 21 11 9 4 2 3 4 3 0 1 5 4 6 4 6 5 3 4 9 4 7 6 8 7 6 4 1 3 2 4 10 6 5 5 6 2 2 5 5 5 4 6 16 17 5 12 6 4 5 4 2 4 2 5 3 2 1 3 4 2 1 2 2 2 2 4 4 5 3 6 1 2 5 8 8 6 3
22 22 22 23 23 23 23 24 24 24 23 16 7 4 3 4 3 4 1 0 6 6 3 3 4 4 2 3 7 6 4 7 13 11 7 5 6 3 3 4 2 5 3 6 8 7 8 4 7 7 6 5 6 12 8 11 10 10 7 6 1 2 1 3 5 6 6 5 5 6 5 7 2 2 1 2 4 6 3 3 0 3 1 4 5 3 5
21 22 22 22 23 23 24 24 23 24 23 21 7 3 3 2 4 1 2 3 4 5 3 4 2 4 2 5 5 4 5 4 7 10 7 9 5 6 7 10 7 6 5 4 3 6 7 10 3 2 1 2 3 6 10 8 8 14 16 9 1 1 1 2 5 8 8 8 5 4 5 3 5 3 2 3 1 5 6 6 5 6 3 4 5 8 4
21 21 22 23 22 23 23 23 23 23 24 23 6 3 3 1 2 3 3 2 5 5 2 4 1 2 0 2 3 3 5 5 6 8 2 6 8 4 6 3 1 4 2 3 4 4 6 6 8 9 7 4 3 6 9 7 11 17 9 8 2 1 3 1 5 7 9 9 4 4 5 3 3 4 4 1 2 5 6 5 4 4 7 4 1 4 12
20 21 22 22 22 23 23 23 24 24 24 27 4 2 2 2 1 2 2 4 3 4 1 0 4 5 2 3 2 6 7 4 2 1 4 0 6 3 2 6 10 12 9 4 3 6 8 5 3 3 4 1 2 2 6 8 8 8 4 1 2 3 3 2 2 1 3 3 3 1 3 4 5 5 5 3 2 3 5 4 3 7 5 8 5 7 10
21 21 22 22 22 22 23 24 24 25 26 21 1 3 2 2 2 3 2 1 1 2 10 10 9 8 5 3 3 3 4 7 3 2 0 2 3 9 2 4 6 8 6 2 3 3 3 5 3 0 2 2 1 3 5 3 3 4 2 1 1 4 0 1 1 0 5 4 2 2 3 3 4 4 5 6 5 6 6 4 5 7 3 8 9 7 12
20 20 21 22 22 22 22 23 22 22 26 13 5 4 4 4 4 3 1 4 5 6 6 4 5 4 3 3 6 4 3 3 4 3 2 1 3 6 4 9 9 8 6 2 3 4 3 7 4 4 3 3 1 2 3 3 3 4 4 2 2 5 2 3 2 2 3 5 4 0 4 5 4 4 5 5 4 3 4 4 3 5 2 2 5 8 3
20 19 20 22 21 22 21 22 22 20 20 6 6 4 4 4 3 5 8 8 2 3 4 5 5 2 1 2 4 3 3 4 2 5 5 4 1 4 5 7 6 4 4 5 5 6 5 6 6 4 1 1 1 3 2 3 3 1 3 2 1 3 2 3 3 2 2 2 3 4 1 3 4 5 7 7 3 1 3 2 5 6 4 4 3 5 4
20 20 20 21 21 21 21 20 20 18 15 5 5 4 5 5 4 5 6 4 3 5 4 4 4 2 2 3 4 1 5 5 6 3 4 1 4 2 3 5 3 6 7 9 7 10 10 9 8 6 3 3 2 2 1 2 3 4 2 1 3 2 3 2 1 3 1 3 2 3 2 3 2 6 8 7 2 1 2 1 3 5 10 8 5 9 6
19 20 20 20 21 20 20 20 19 17 10 7 6 6 7 6 7 5 3 4 2 2 7 3 3 3 4 5 7 6 7 7 3 2 3 3 5 6 5 4 3 5 4 5 7 5 11 9 5 4 2 3 4 4 5 9 2 5 4 1 2 3 6 0 1 2 2 3 2 3 6 4 5 4 3 4 5 6 3 2 5 4 7 8 8 7 4
19 20 19 20 20 21 20 19 19 19 12 5 4 6 5 6 7 4 4 4 5 1 5 4 6 5 4 13 4 2 3 4 4 3 3 3 7 7 5 5 1 4 5 4 7 8 7 5 9 8 9 9 9 9 9 8 11 6 4 7 4 5 4 3 1 2 1 3 3 4 4 5 4 5 4 4 6 7 5 3 3 2 1 8 8 6 10
18 19 18 20 20 19 20 19 18 18 16 8 5 7 7 6 4 5 5 5 4 8 8 9 9 8 8 8 5 5 5 6 4 6 4 4 3 2 2 1 1 4 5 9 11 7 3 2 3 3 4 7 6 9 10 7 10 9 1 8 8 4 6 2 2 2 1 2 3 2 3 4 4 8 4 1 4 1 8 2 3 1 2 7 11 14 13
16 17 18 18 19 19 19 19 19 17 18 12 7 6 6 5 4 4 3 4 7 4 3 9 5 9 12 12 8 10 5 6 4 2 1 2 3 4 4 2 2 4 7 4 5 4 5 7 3 7 8 8 8 5 5 4 6 5 4 3 7 8 3 4 1 1 1 2 2 3 3 4 3 1 1 1 1 1 9 5 1 1 1 1 10 12 12
16 16 18 18 19 18 19 20 19 18 17 16 7 6 5 4 3 3 3 4 5 10 4 2 8 9 10 11 8 9 5 5 8 5 3 2 1 2 3 5 5 9 5 4 5 3 0 1 1 0 1 3 2 4 1 1 1 3 6 4 8 6 6 1 4 2 2 3 1 2 1 1 4 6 4 1 2 3 4 8 1 1 5 0 5 8 12
16 16 16 18 19 19 19 19 19 18 18 17 7 6 7 2 4 4 4 4 4 7 4 4 6 4 6 7 9 6 5 6 6 3 6 4 3 8 3 4 6 3 1 2 1 1 0 1 2 1 2 4 5 0 1 0 1 2 3 6 10 7 8 7 7 2 2 2 2 1 2 3 5 4 3 5 2 4 3 6 1 3 1 4 2 7 6
16 16 16 17 19 19 18 18 19 19 17 18 9 7 5 3 2 4 4 3 2 8 10 12 8 3 5 6 5 4 3 4 6 4 5 7 6 5 8 6 4 2 1 2 1 0 2 1 1 1 4 3 3 3 1 1 2 1 3 4 8 8 3 5 3 3 1 2 1 1 2 0 0 3 4 5 2 1 5 4 4 3 4 2 0 1 6
16 16 16 17 18 19 17 18 19 19 18 17 9 7 6 4 2 4 3 3 4 7 5 2 5 5 2 2 6 4 1 3 4 1 1 4 4 3 4 5 7 6 1 0 0 2 3 1 1 1 1 2 2 3 3 3 2 2 2 3 2 3 1 2 6 3 1 2 1 1 3 4 3 4 6 4 1 6 5 6 4 3 4 3 1 1 2
17 16 16 17 18 19 18 19 19 19 18 18 11 8 2 1 6 2 3 4 2 6 6 7 9 9 6 4 3 4 1 0 2 2 5 6 1 3 5 4 2 3 6 1 3 2 1 3 2 1 1 6 4 1 1 4 3 0 4 2 1 1 3 3 3 3 3 3 1 4 4 6 2 2 3 2 3 2 4 4 2 2 3 1 0 2 1
17 16 16 17 18 18 18 18 18 18 17 17 11 5 9 7 3 4 5 4 3 8 15 12 4 7 3 4 6 4 5 3 1 1 0 3 4 6 5 4 4 1 5 2 3 0 2 2 2 2 3 1 1 1 1 1 1 2 2 4 4 5 3 2 2 2 2 2 1 1 1 1 2 4 1 4 3 5 3 1 1 3 2 1 2 0 3
18 17 16 17 18 18 18 19 18 17 17 17 12 7 7 1 1 3 2 5 5 8 11 5 4 9 7 9 9 11 8 6 3 2 4 6 4 1 2 2 3 1 1 2 2 1 0 2 3 1 1 1 5 4 1 2 2 2 1 3 3 3 3 1 2 4 4 3 2 2 3 5 3 1 2 2 2 3 5 4 2 2 1 2 2 2 2
17 16 16 17 18 18 18 18 19 17 17 16 14 6 7 6 5 5 4 3 5 8 9 10 6 14 16 13 13 12 15 14 11 9 4 1 2 1 2 1 2 0 1 1 3 2 3 1 1 3 4 3 2 1 1 1 2 4 2 2 3 2 1 6 5 2 2 2 3 3 3 2 3 4 2 1 2 2 3 6 4 4 4 1 2 2 2
17 17 16 17 18 18 17 18 19 17 17 16 11 5 8 9 7 5 6 5 4 7 8 12 10 12 13 13 15 15 15 15 11 10 7 5 1 2 0 2 2 0 1 0 1 2 1 1 0 1 1 0 2 4 2 1 1 2 2 2 1 1 1 1 5 1 0 2 2 0 2 2 4 4 1 4 5 4 5 6 6 4 2 1 1 1 2
16 17 17 18 18 18 18 18 19 18 17 16 11 7 8 5 8 7 4 4 2 8 7 2 3 6 4 11 18 16 6 4 9 11 5 3 3 1 2 1 1 1 0 3 2 0 1 1 1 0 1 2 1 3 1 3 1 0 2 4 3 2 1 1 4 0 6 2 3 3 2 2 5 4 4 4 4 4 3 5 4 2 2 3 1 1 2
17 17 17 18 18 19 19 19 18 18 17 17 13 7 8 7 3 1 4 4 4 4 3 9 6 10 3 6 10 7 6 2 5 9 11 5 3 5 4 3 5 1 4 1 1 4 3 2 2 2 1 2 2 2 1 1 3 1 3 3 2 2 3 6 3 3 2 2 2 2 1 1 0 1 3 4 4 5 4 2 2 2 2 3 2 3 4
18 17 17 18 18 19 19 18 18 18 17 18 15 8 7 8 4 3 4 5 5 4 4 4 10 8 5 13 8 5 10 11 7 6 8 9 7 6 7 3 1 3 2 2 3 2 1 1 0 0 2 3 1 1 0 1 2 2 2 1 1 1 3 2 1 2 1 2 1 1 1 7 5 4 1 1 3 4 4 5 5 5 5 4 3 1 4
18 18 18 17 18 19 19 19 18 17 18 19 11 8 8 9 5 6 5 3 2 2 2 5 6 11 9 16 16 10 8 6 9 6 4 7 8 4 3 6 6 2 2 3 3 2 1 1 2 1 2 2 1 1 2 2 1 2 1 4 1 1 1 0 5 4 1 3 3 1 4 1 1 3 1 1 0 4 4 4 4 4 4 4 4 4 3
20 19 19 18 19 19 19 19 18 17 17 19 11 10 9 9 5 7 8 7 3 2 3 5 8 14 14 11 7 7 12 8 4 5 6 5 4 6 5 4 3 2 3 4 2 1 2 3 6 4 1 0 1 2 0 0 1 1 1 3 1 1 4 4 6 7 5 6 6 2 3 4 2 1 2 0 0 4 5 4 2 1 2 2 4 3 4
20 20 19 20 19 20 18 19 18 16 18 14 9 11 8 6 5 6 7 6 5 4 5 6 8 5 2 9 15 13 10 5 6 8 6 5 2 3 5 5 4 3 1 3 1 1 2 4 2 4 2 5 5 1 2 1 1 2 5 2 2 5 2 5 8 5 1 3 3 5 3 4 2 1 2 3 2 7 5 3 2 1 1 3 3 1 4
21 21 21 21 20 19 20 19 17 16 14 6 6 3 3 3 2 5 5 3 2 3 3 4 5 6 4 5 7 7 8 8 6 8 5 2 1 2 3 2 3 1 2 2 2 2 2 1 2 2 1 2 2 2 3 3 2 6 4 3 5 3 1 1 5 6 3 2 4 4 5 5 2 3 3 2 2 4 5 4 4 4 4 1 4 2 0
23 22 23 21 21 21 20 19 17 14 11 1 1 2 1 1 3 3 6 4 4 1 0 1 7 6 8 5 4 9 9 10 7 7 6 4 4 4 2 1 1 3 1 1 0 2 1 1 0 1 1 1 4 2 2 3 2 2 3 4 5 4 2 4 3 3 5 4 4 3 3 2 0 3 5 4 4 4 3 1 3 4 4 4 3 1 2
23 25 23 24 23 22 21 19 17 13 4 4 5 4 3 1 1 4 7 7 5 2 0 2 5 3 3 4 3 3 6 9 3 2 2 1 3 1 2 1 3 1 2 2 1 1 1 2 1 1 1 2 3 1 2 2 2 3 2 2 3 3 3 3 3 1 2 5 6 5 3 2 1 4 2 1 2 4 4 1 1 2 4 1 1 4 5
23 25 26 25 24 23 21 20 17 10 6 8 14 19 23 26 25 20 10 4 1 2 1 0 3 2 1 6 7 6 2 3 2 1 3 0 2 0 2 2 1 1 1 3 0 1 2 2 0 0 1 1 1 1 1 2 4 5 5 4 3 4 4 2 4 3 3 2 3 3 3 3 1 1 3 2 4 4 3 2 2 3 3 5 5 4 6
25 26 26 25 25 25 22 20 16 10 6 4 5 6 7 15 15 19 6 3 1 2 1 1 2 2 5 5 4 8 1 3 4 2 3 4 2 2 2 0 2 1 1 1 2 0 3 1 1 1 2 1 1 1 1 3 4 5 1 1 4 4 3 4 4 4 4 4 3 4 5 3 2 2 3 4 3 3 3 3 2 2 3 4 4 3 1
26 26 26 27 25 23 20 11 1 3 3 2 4 6 4 6 5 2 9 4 2 1 0 2 1 2 4 4 1 8 2 3 4 1 1 5 0 2 1 2 2 2 4 1 1 0 1 3 5 2 3 1 1 1 3 4 4 1 1 4 4 5 6 6 1 4 5 5 6 5 3 4 5 4 3 2 1 1 2 3 3 1 2 3 3 2 1
26 27 26 26 26 13 1 3 3 3 0 2 5 3 4 4 3 3 5 1 1 1 1 3 1 3 2 2 3 5 2 5 3 2 2 1 2 1 2 2 1 4 1 1 2 0 1 1 2 2 1 1 3 3 4 4 2 1 6 4 4 4 4 8 7 3 2 4 6 4 5 3 5 4 3 2 1 1 2 2 4 3 1 2 2 1 1
25 26 27 20 6 1 1 1 2 2 2 6 12 16 11 2 0 1 1 1 2 1 3 1 2 6 3 4 1 5 3 3 4 4 4 2 2 2 2 1 1 2 1 1 1 1 5 1 2 1 1 2 2 5 4 3 4 9 6 6 5 4 6 6 7 7 5 5 5 2 3 2 2 2 3 3 3 1 1 2 2 1 1 1 2 4 3
25 22 7 3 3 1 1 1 1 7 15 16 12 3 1 1 1 0 0 1 2 3 2 1 6 4 1 1 5 5 3 5 2 2 4 1 0 1 0 1 1 0 1 1 2 4 1 1 1 2 2 4 4 3 2 2 2 2 4 4 5 6 8 7 7 8 7 3 1 1 0 1 3 2 6 5 4 3 1 1 1 1 1 1 4 5 3
14 6 3 2 1 2 1 2 8 19 12 5 1 1 1 0 0 0 2 2 0 1 2 5 7 4 5 5 8 3 3 3 6 2 1 3 1 2 1 1 3 2 1 1 4 1 0 2 1 0 1 2 0 1 0 2 2 2 2 1 3 6 8 7 7 10 8 7 7 6 6 5 6 6 4 4 1 1 3 1 1 1 2 4 4 4 4
4 6 3 4 1 3 5 5 12 10 2 1 0 1 1 0 2 2 0 1 1 2 2 5 5 6 8 11 8 7 1 5 3 3 3 6 0 1 2 1 1 2 1 0 4 2 2 1 1 1 2 2 3 1 1 2 5 4 4 3 4 5 4 5 2 1 5 4 3 3 3 4 5 7 5 4 5 3 0 1 1 1 4 5 5 5 5
3 2 3 2 4 4 5 8 7 1 0 0 1 0 0 1 2 2 0 2 2 3 3 4 1 2 3 3 4 7 6 1 3 2 2 2 3 2 2 1 1 1 1 1 3 1 1 1 0 1 3 3 3 2 2 5 5 5 4 3 4 4 6 5 4 4 5 5 4 4 4 4 4 5 5 6 5 5 3 0 3 4 5 6 6 4 5
3 3 4 6 7 7 6 2 1 0 0 0 1 1 2 2 1 1 1 2 3 2 2 3 3 3 5 10 7 4 4 3 1 1 1 1 1 1 2 0 1 1 1 4 1 2 2 0 0 1 2 3 3 2 4 5 3 5 3 4 5 4 5 5 5 3 5 5 4 5 4 4 4 4 5 4 4 3 4 4 5 5 6 4 6 6 5
14 12 5 3 2 1 1 1 1 1 1 0 1 2 1 0 2 3 2 1 1 1 3 2 3 1 1 2 1 2 3 1 0 1 1 2 1 1 1 0 1 0 3 1 1 1 0 1 1 4 5 5 5 5 5 5 4 4 3 3 4 3 4 4 4 4 4 5 5 5 5 5 4 3 4 5 5 5 3 3 6 6 6 8 7 7 6
5 1 1 0 1 3 0 1 1 1 1 0 1 1 1 1 5 1 1 3 1 2 2 2 5 1 4 1 2 1 1 2 2 1 1 1 1 0 1 0 2 4 0 1 0 0 3 2 5 5 7 5 4 3 5 4 4 4 4 2 3 4 4 3 2 4 5 4 4 3 4 5 5 5 5 4 7 7 5 4 2 5 5 6 6 6 6
2 2 0 0 1 2 1 2 1 1 1 2 1 2 1 2 4 2 4 4 1 5 5 2 1 1 1 3 1 1 1 1 3 1 2 0 0 0 1 2 2 1 1 1 1 2 1 1 2 3 4 4 4 4 5 5 5 5 4 2 3 3 3 3 1 3 4 5 3 3 6 4 5 5 5 5 4 5 8 6 4 5 5 5 5 5 4
2 0 1 2 4 3 1 1 0 1 1 0 0 2 4 6 4 8 7 2 4 6 3 3 5 2 0 1 3 2 1 2 1 2 1 1 1 2 3 0 1 1 1 1 0 1 2 5 5 3 3 5 6 5 5 5 4 4 5 4 2 2 2 3 1 3 4 4 2 3 5 5 5 5 5 4 5 5 5 5 4 6 6 6 5 6 5
1 1 1 0 0 3 0 0 1 0 2 3 3 5 6 9 9 10 7 5 8 7 4 2 0 1 0 1 1 3 2 0 1 2 1 1 1 2 1 1 0 0 1 1 1 1 2 4 4 4 5 5 5 5 5 5 5 5 5 4 3 3 2 2 1 4 1 3 4 4 5 4 4 4 4 6 4 4 5 5 6 6 7 7 6 5 5
0 2 0 1 2 1 1 1 3 4 2 2 6 8 8 8 7 7 7 2 4 0 3 2 3 4 3 2 2 3 3 1 0 3 1 1 0 1 1 1 0 1 1 1 2 4 4 2 2 3 4 4 6 6 5 5 4 5 5 4 5 5 2 1 1 1 2 4 5 4 4 5 6 5 5 6 5 4 4 4 6 5 4 4 4 5 6
1 0 0 1 1 2 2 4 6 5 6 7 8 8 10 11 11 9 7 3 2 1 1 1 2 1 1 2 0 0 1 2 1 2 0 2 1 2 1 0 0 2 2 0 3 4 2 1 1 2 4 4 4 5 6 6 7 7 6 6 6 6 5 3 2 2 1 1 4 5 4 5 4 4 4 4 5 4 4 6 6 5 5 6 5 6 5
0 1 1 1 3 3 4 4 2 4 6 8 8 9 10 11 11 11 6 6 5 3 3 3 1 1 1 0 1 1 1 1 1 1 1 1 1 0 1 2 1 1 2 3 2 2 4 5 1 4 5 4 3 3 4 5 7 7 5 6 5 4 5 5 2 2 3 3 3 5 6 5 3 5 7 7 6 5 3 4 6 5 5 5 6 6 6
1 1 3 3 4 4 4 4 4 7 8 8 7 8 8 10 9 11 10 7 5 4 3 1 0 1 1 2 0 1 2 1 1 0 2 1 2 2 2 2 2 3 6 5 2 2 4 5 6 5 6 6 5 5 3 1 0 3 6 6 6 5 4 5 5 4 3 2 2 5 4 5 6 6 4 4 6 5 3 1 4 6 5 5 4 5 7
0 1 2 2 2 3 5 5 4 5 5 6 7 8 6 7 9 11 11 8 3 4 1 2 1 1 1 0 1 2 2 1 0 1 3 1 1 3 0 1 3 6 5 4 6 7 7 7 8 6 3 3 3 2 3 4 5 4 0 4 6 5 4 5 5 5 4 4 3 3 2 0 1 4 6 6 5 5 4 4 3 4 7 7 4 5 7
Wind_Direction
349 348 347 346 346 347 348 348 348 347 344 343 346 313 307 317 270 219 180 194 139 133 228 206 207 218 229 337 275 261 263 262 269 271 202 242 214 222 215 232 215 233 235 252 252 275 269 250 240 201 185 203 213 229 180 190 194 213 267 152 245 174 194 188 238 274 285 249 223 153 160 119 114 219 120 121 174 171 161 161 188 154 225 75 9 152 253
350 349 348 347 346 347 348 348 349 346 345 339 323 301 293 286 283 294 274 214 141 158 224 222 221 249 279 255 256 268 270 274 274 255 240 218 275 217 239 226 209 257 221 258 269 296 351 279 228 254 192 216 218 219 163 168 214 146 226 162 247 178 254 138 141 58 1 343 349 3 18 111 146 183 256 187 143 151 185 108 37 143 225 170 135 196 256
350 350 348 347 346 347 347 345 344 344 341 341 322 300 300 279 236 232 235 217 152 207 200 249 263 253 274 272 280 270 245 234 234 234 234 219 244 307 258 253 311 263 248 257 259 250 210 276 295 259 206 243 219 207 195 179 194 212 221 213 102 96 213 107 135 147 160 193 200 219 219 210 225 165 162 257 153 149 117 182 22 152 271 133 146 207 256
351 351 349 348 347 347 348 346 343 343 340 340 329 304 297 350 325 298 212 163 210 262 266 274 251 289 297 284 261 243 253 262 235 220 249 210 238 246 279 299 287 275 290 289 262 273 205 202 285 294 257 264 257 159 184 188 193 213 228 249 36 167 164 108 149 144 183 202 206 236 137 153 184 202 152 260 258 108 113 114 120 200 218 183 237 159 149
354 351 350 349 349 349 348 348 345 344 340 340 327 274 216 304 269 334 315 284 227 250 237 243 200 250 99 252 349 273 252 294 297 181 219 206 206 222 222 245 328 277 238 253 283 248 297 263 228 253 263 239 250 170 174 199 203 215 225 242 22 69 202 335 131 172 189 187 197 207 139 145 185 150 223 247 170 143 113 130 210 184 108 246 260 199 133
355 352 350 349 349 349 351 351 348 344 342 338 326 283 229 320 188 143 289 313 309 327 307 351 285 255 208 258 286 274 299 298 271 320 234 233 182 199 310 217 225 248 255 279 303 316 310 287 259 270 228 298 320 140 168 199 200 195 190 194 140 144 181 261 145 236 180 205 242 215 134 145 163 172 185 216 179 149 138 211 181 121 170 204 226 181 153
355 354 351 350 350 351 352 353 352 346 342 338 214 335 287 248 331 270 51 292 229 235 285 300 287 288 219 246 259 283 263 282 254 243 301 186 193 176 266 270 232 245 260 206 264 283 344 326 290 164 311 68 4 40 55 13 71 134 194 239 232 94 261 257 150 103 23 7 0 319 187 149 137 193 207 200 143 193 163 194 164 160 207 206 163 183 174
355 354 351 351 351 352 353 355 354 350 343 340 24 27 331 19 338 331 205 218 279 284 298 282 282 299 240 203 240 243 245 267 322 309 216 232 275 175 215 259 274 280 279 248 238 250 238 256 289 315 358 333 69 147 167 149 60 140 211 161 282 109 274 264 29 63 344 324 348 170 218 174 181 237 233 214 171 142 204 141 170 100 60 10 153 139 214
353 354 352 352 351 352 354 355 356 356 347 9 18 336 48 319 285 286 309 315 264 258 285 312 321 308 263 243 274 220 266 281 269 263 239 193 198 164 216 241 273 277 284 299 296 288 284 269 266 254 269 303 249 81 309 94 118 234 192 179 332 79 254 29 47 72 332 321 12 1 59 199 191 217 240 240 189 217 166 175 219 126 186 85 60 135 208
353 353 353 352 352 352 354 356 355 359 352 3 341 325 344 308 254 282 302 284 312 334 288 259 310 1 303 273 275 261 278 272 300 330 310 267 225 201 267 280 292 301 343 325 308 300 297 288 278 293 256 212 291 70 277 357 155 208 190 226 95 118 110 36 49 75 273 267 1 48 40 49 312 263 236 229 194 160 157 268 207 182 147 118 147 219 209
353 354 353 350 352 351 353 355 355 358 358 9 348 321 324 337 330 322 265 277 271 323 335 300 24 278 300 277 279 267 259 272 291 107 281 327 308 310 312 306 343 299 290 263 277 275 278 259 284 317 5 356 7 4 342 335 350 222 166 87 75 85 95 117 206 106 251 304 308 66 86 186 233 236 193 161 182 196 173 196 185 183 150 186 183 191 153
352 354 352 350 351 351 352 352 354 355 358 343 314 302 312 311 302 280 311 322 294 357 352 304 316 305 303 314 295 258 283 274 255 191 243 267 277 298 309 320 60 331 244 260 318 326 324 354 354 356 1 354 358 351 335 329 301 286 190 125 121 105 90 168 193 84 290 325 7 57 156 224 244 282 268 207 209 177 165 110 347 218 324 87 86 121 150
349 352 351 349 349 350 350 350 351 352 350 342 332 316 321 311 286 300 295 300 295 333 348 317 307 279 294 298 324 328 306 279 271 270 241 235 294 305 281 288 255 250 305 340 339 360 40 341 331 335 306 342 346 344 316 281 278 268 230 119 113 114 103 173 34 116 53 47 47 114 232 237 288 288 270 339 72 203 110 47 11 60 237 158 144 167 172
342 346 350 350 349 350 348 348 348 349 348 345 330 310 304 314 315 307 317 325 300 287 307 289 300 331 336 328 326 322 313 335 323 210 262 232 250 272 267 244 245 290 318 332 0 22 10 29 1 5 338 14 351 354 285 281 253 205 130 122 104 130 102 80 46 56 181 211 136 191 288 326 330 25 65 103 190 164 163 167 274 288 11 246 165 176 173
339 341 345 349 349 348 347 346 345 347 347 345 320 308 301 293 252 287 291 283 288 295 286 273 337 321 320 307 318 329 334 325 360 332 280 268 238 255 287 293 327 331 321 59 8 16 134 57 16 139 304 66 251 260 291 336 291 176 142 130 119 132 105 243 101 306 111 127 46 15 42 225 275 247 272 312 205 148 169 101 318 305 329 253 125 177 177
336 337 339 345 348 347 346 344 344 344 347 344 328 320 297 265 285 249 273 287 299 306 264 228 334 300 313 305 305 311 307 325 321 301 346 345 307 330 315 335 334 277 7 47 201 239 129 225 231 135 189 203 234 152 272 138 96 350 58 106 72 43 94 129 119 211 32 38 110 187 152 242 214 250 265 270 279 152 116 70 144 268 238 302 153 148 200
335 335 337 340 345 345 345 343 342 344 344 348 333 332 297 345 329 341 320 290 237 249 279 300 290 306 308 298 326 350 358 331 339 16 341 334 315 298 295 329 326 54 64 102 334 59 3 354 337 234 276 181 169 210 225 98 119 117 1 49 75 81 54 75 57 83 127 143 84 277 193 215 267 236 263 252 179 137 63 151 265 260 284 261 97 140 167
335 334 336 337 341 341 344 343 342 341 343 345 337 318 284 300 304 331 275 284 304 279 258 207 27 326 269 262 323 299 333 336 344 341 311 277 299 326 319 343 357 332 38 107 353 62 14 26 351 242 223 265 162 114 198 178 144 195 148 152 129 88 11 84 183 154 131 84 279 331 313 281 264 265 254 231 182 72 100 187 234 251 262 271 182 198 190
334 334 334 337 339 337 340 341 340 340 341 344 337 315 244 310 320 300 266 281 283 270 249 322 291 244 248 278 294 298 250 208 319 16 325 343 294 286 302 297 57 332 2 359 54 65 32 278 291 327 12 323 10 169 236 141 222 5 99 81 59 22 101 338 85 108 160 187 144 230 239 242 234 272 188 241 95 180 197 231 201 189 267 297 254 355 195
333 333 334 336 336 335 339 340 338 337 339 343 346 304 287 303 282 22 358 322 289 274 288 275 208 243 242 310 306 303 322 336 91 122 215 259 284 352 18 13 330 54 336 63 48 315 82 310 289 352 25 319 289 274 3 255 337 150 172 185 134 206 118 201 176 212 64 72 70 23 115 285 132 358 350 47 113 228 206 214 245 196 240 85 17 305 291
332 332 332 333 334 336 337 336 336 335 336 338 343 328 316 198 325 353 288 293 302 309 298 269 229 243 272 262 245 250 243 235 216 221 226 215 258 41 79 196 254 351 336 68 98 305 36 309 333 309 263 45 295 48 38 313 5 334 110 190 160 214 135 246 260 172 166 143 145 181 218 248 294 114 154 256 190 192 179 148 22 342 109 63 23 344 293
330 329 329 331 332 333 336 333 333 332 331 334 335 317 282 292 317 310 289 259 242 221 248 281 305 285 271 252 250 228 234 238 223 200 170 222 309 145 200 237 273 217 256 75 31 9 8 281 8 32 3 321 3 56 249 77 59 287 321 86 122 241 152 179 175 226 128 204 206 246 244 233 304 88 148 191 358 44 112 94 94 44 359 21 75 354 341
329 327 328 329 329 330 333 331 330 329 328 330 329 311 300 308 308 314 311 287 250 253 262 273 281 273 269 255 228 225 235 226 218 221 230 126 6 324 94 327 298 269 341 44 111 144 203 112 163 185 42 316 12 315 345 111 165 344 11 299 175 343 193 172 83 43 243 101 139 183 359 15 30 25 74 96 57 45 70 73 59 10 324 285 144 143 88
328 326 326 327 326 326 328 330 329 326 325 325 323 306 300 294 300 316 300 236 271 297 290 262 7 323 322 333 334 326 334 146 203 227 231 134 116 310 325 266 218 324 197 229 209 83 229 116 216 141 114 262 69 51 11 352 4 262 43 343 339 306 15 79 100 152 75 131 313 76 120 18 353 43 33 51 74 73 90 73 72 58 34 56 30 128 88
324 323 324 323 323 324 327 331 328 321 321 321 318 293 289 286 254 351 7 339 337 23 303 308 281 237 277 312 291 264 257 291 288 243 245 241 147 148 177 213 189 174 277 242 106 53 34 39 335 40 48 269 105 319 223 93 314 77 49 275 4 321 12 68 54 63 101 211 231 246 263 93 309 280 86 74 49 38 41 99 130 104 81 103 160 133 95
322 321 321 320 320 323 327 328 322 320 321 318 316 304 295 275 257 254 245 259 257 265 291 307 283 292 335 333 317 269 291 290 288 284 214 208 207 178 169 144 185 217 197 103 85 88 108 56 112 156 80 302 95 135 245 208 242 281 138 225 225 272 13 113 117 90 309 331 335 246 104 34 17 25 18 204 139 86 26 18 37 41 45 27 21 3 152
320 319 318 319 320 324 326 324 322 322 319 317 311 291 277 272 233 200 202 219 286 310 256 261 277 302 349 319 293 305 296 301 307 316 290 241 229 219 137 174 180 146 220 328 14 104 91 60 86 259 184 234 126 171 195 8 28 332 326 284 20 62 43 197 80 83 149 177 203 176 97 152 15 20 20 124 226 90 55 28 24 30 53 52 61 32 20
319 318 316 317 320 322 323 321 322 321 317 317 308 289 271 264 233 193 207 217 213 210 270 283 304 296 309 271 261 286 298 297 273 262 278 274 179 191 180 189 163 131 146 156 320 101 156 166 232 213 146 250 41 316 93 152 58 16 338 266 183 152 195 137 138 155 212 244 241 200 138 141 207 216 309 323 345 74 61 24 2 14 104 120 96 69 57
317 316 315 316 318 320 320 321 320 316 316 323 311 302 288 243 215 183 194 198 216 267 272 270 282 312 289 300 316 314 307 319 324 325 304 266 247 152 180 208 204 202 143 95 123 147 170 227 171 143 191 203 121 236 68 350 17 257 243 229 182 244 193 164 180 159 226 212 197 161 125 154 171 204 124 77 87 88 78 43 7 353 30 106 92 160 140
315 314 315 317 317 316 317 316 312 312 316 334 332 327 355 27 87 165 146 112 206 239 275 331 326 259 302 319 289 293 302 313 322 328 293 215 214 281 242 216 265 170 149 171 168 270 235 231 275 272 248 91 151 171 148 177 173 241 249 243 246 282 304 234 148 133 175 210 173 184 152 160 160 136 98 77 79 100 89 58 36 23 353 65 105 85 178
314 314 315 315 314 313 311 306 303 302 309 344 6 360 24 167 182 175 132 78 38 80 212 198 244 300 316 255 254 281 291 304 301 301 276 230 215 212 252 154 249 145 273 323 61 223 146 283 166 286 36 112 124 113 179 152 217 309 248 205 219 231 213 194 216 155 129 127 100 87 81 68 161 73 34 31 42 76 82 36 14 36 13 36 59 95 65
314 314 314 314 313 308 302 299 294 290 249 205 221 200 186 243 39 288 300 344 2 39 134 331 319 333 278 298 261 265 287 282 277 283 303 317 294 306 327 145 233 118 133 161 215 67 232 209 116 256 174 223 96 118 75 92 163 233 261 255 246 206 176 144 119 93 87 118 93 59 46 13 14 134 187 244 64 67 90 51 350 359 33 49 3 72 64
314 314 314 313 309 303 299 293 286 275 236 245 245 258 268 273 273 272 282 297 154 222 176 140 238 271 284 263 308 296 242 353 356 7 295 268 239 86 298 0 45 111 301 90 316 196 226 136 166 53 269 64 108 125 111 176 214 236 214 208 201 174 178 155 105 95 83 65 120 142 192 183 179 189 160 105 74 74 53 18 319 12 22 18 4 24 46
315 315 314 309 305 301 298 295 294 281 273 256 269 251 247 249 254 258 229 158 202 231 143 155 290 284 264 314 4 281 12 351 279 346 306 285 204 88 236 22 345 120 303 104 254 67 326 71 186 234 334 354 58 79 280 261 253 266 292 238 177 173 130 84 96 96 91 78 80 125 159 183 123 121 72 61 42 15 32 31 20 25 357 15 3 24 96
317 315 311 308 302 302 306 312 66 109 168 228 250 260 255 237 225 188 152 156 109 327 57 271 177 293 327 345 337 277 302 15 307 258 184 268 44 191 257 77 321 69 283 100 36 164 216 248 170 97 239 316 53 253 246 253 287 295 92 161 172 126 83 79 64 140 130 119 108 121 126 112 102 104 114 118 67 12 44 11 2 61 46 347 13 12 97
318 313 309 305 305 308 349 82 91 108 120 224 243 237 208 130 132 138 182 220 143 181 227 250 185 218 186 268 304 280 329 331 268 302 229 230 348 15 98 122 76 255 213 91 204 351 228 246 92 277 285 79 231 192 236 203 209 206 148 171 223 165 170 162 167 182 141 127 128 134 116 99 131 178 172 160 66 56 89 38 356 44 109 357 44 109 172
316 312 307 306 308 77 20 196 206 163 352 286 281 282 283 200 83 112 129 284 273 191 214 257 291 249 180 227 270 275 25 322 317 344 335 17 233 284 53 46 205 278 44 8 4 224 258 72 97 116 191 164 248 233 223 197 184 139 144 161 182 149 124 135 151 135 113 121 109 130 129 129 169 145 122 132 156 147 56 28 324 318 321 341 153 169 218
315 310 312 348 8 31 5 344 73 319 331 310 313 309 40 67 104 316 30 186 257 156 250 193 246 250 272 166 248 255 359 277 41 360 305 242 50 315 45 104 231 98 269 243 246 191 74 36 122 157 263 257 263 273 267 191 187 117 139 156 167 158 150 152 149 125 126 116 40 244 274 77 164 186 154 173 168 140 179 199 339 162 212 157 168 151 139
314 307 351 359 37 272 206 261 345 337 321 264 108 78 315 113 64 306 224 215 78 231 252 170 241 187 184 223 266 287 215 275 326 5 308 276 100 313 2 69 298 62 313 18 295 31 10 327 348 27 267 295 161 191 258 210 99 88 101 161 140 162 158 166 164 148 158 171 191 193 173 174 180 220 225 168 185 215 178 172 43 53 114 118 132 138 135
343 2 350 328 309 259 295 308 343 327 303 18 305 108 240 263 123 263 229 118 270 255 159 236 219 189 190 205 230 290 254 137 189 265 239 304 210 132 262 84 264 88 262 70 250 38 117 213 284 77 281 271 241 235 199 104 69 24 42 47 81 112 125 133 125 154 147 174 159 174 180 174 172 158 170 166 155 138 32 303 27 117 134 136 140 142 140
5 335 335 272 271 307 303 319 320 257 354 37 5 347 71 300 240 206 196 224 212 235 192 198 252 248 235 193 175 234 274 167 231 144 123 243 257 88 54 242 238 86 296 283 275 66 76 82 353 174 233 234 210 192 114 73 74 54 43 53 72 92 111 110 126 153 120 108 85 70 99 131 132 141 155 165 163 174 185 147 107 128 120 128 124 129 123
269 256 243 271 284 282 302 309 151 21 331 193 131 264 221 218 267 331 165 183 241 241 272 189 261 217 230 186 199 179 272 218 163 110 107 302 296 142 222 260 17 101 237 235 142 55 76 189 296 275 264 240 230 217 126 109 114 99 73 64 58 66 71 83 82 75 104 103 103 116 113 115 126 144 149 143 155 161 121 119 112 107 109 105 107 111 116
280 271 252 280 308 297 214 339 271 120 120 8 55 317 303 265 226 200 263 250 273 176 260 214 234 194 298 92 269 213 203 225 161 296 76 232 289 57 91 8 61 241 236 309 61 64 64 201 235 245 227 203 201 183 158 153 153 131 116 86 80 96 123 115 110 89 72 107 123 123 130 109 98 120 133 115 102 77 81 120 134 129 127 127 124 126 125
270 187 134 208 307 277 128 324 244 54 354 178 122 221 265 314 306 344 329 272 286 304 259 245 273 154 252 297 164 275 354 352 54 80 330 275 94 278 56 217 220 242 51 43 47 154 216 220 206 217 205 195 194 162 145 135 118 86 66 48 43 60 68 66 74 80 62 73 94 105 88 90 86 65 65 79 103 109 108 101 104 117 115 113 120 125 129
15 359 347 346 296 260 59 314 297 131 215 260 188 221 196 215 256 231 227 248 168 258 282 288 197 96 208 268 24 324 114 209 297 100 246 111 22 316 108 252 248 30 91 254 326 322 6 305 272 235 182 170 176 176 152 139 139 143 164 107 69 44 48 48 62 97 116 139 147 111 106 104 97 97 99 100 103 120 126 135 144 116 119 117 117 114 129
43 338 348 49 325 305 143 246 111 315 282 111 324 245 278 270 233 265 254 221 270 288 315 314 317 12 350 263 133 222 315 110 120 235 206 74 99 263 241 233 73 61 10 41 45 235 215 236 248 233 181 172 173 181 160 166 166 147 114 138 175 103 107 82 69 139 170 159 155 125 134 127 128 119 116 125 129 120 120 135 142 131 130 124 142 149 158
339 298 212 247 260 270 132 197 267 278 326 312 284 302 297 291 282 267 272 258 254 230 263 280 194 228 339 310 36 355 338 80 207 262 73 69 195 256 21 89 273 167 134 272 256 254 263 253 223 208 203 184 159 167 166 173 175 166 164 173 156 142 106 93 80 72 23 120 140 150 133 135 138 140 118 100 111 135 135 138 144 145 142 152 161 142 130
337 271 50 104 249 239 240 256 0 307 254 296 319 319 306 293 286 285 280 264 244 133 48 36 4 350 8 298 83 189 235 296 280 290 169 204 22 43 13 38 336 259 159 160 237 225 236 254 257 237 210 175 159 162 172 167 184 173 167 172 172 148 171 115 124 98 125 143 144 148 148 153 149 153 148 148 141 151 149 151 146 139 134 136 128 124 132
208 192 210 234 250 307 294 311 335 324 325 337 326 328 333 345 332 311 298 302 340 5 247 145 189 109 263 260 93 36 357 295 54 265 21 28 102 217 154 226 290 35 293 217 258 241 229 228 242 196 131 145 164 155 168 177 171 173 176 177 177 173 172 170 190 175 119 129 133 136 163 177 155 136 134 131 134 179 184 142 132 144 154 149 148 132 132
104 306 284 253 322 299 273 292 352 328 332 335 343 338 334 330 330 323 320 333 320 336 3 28 33 100 243 87 317 1 237 259 214 295 50 329 244 243 71 55 358 106 289 290 284 288 315 320 309 85 79 101 112 135 162 184 178 178 192 184 178 170 163 172 195 180 142 122 170 166 166 147 141 145 155 170 177 175 174 121 127 148 163 164 155 146 145
236 171 237 174 183 264 10 329 330 323 322 325 331 324 329 319 319 316 328 321 327 14 46 66 289 66 355 21 41 40 260 211 50 291 174 191 319 46 67 87 290 267 266 274 270 341 36 33 33 42 56 55 67 77 80 74 275 223 190 175 182 177 170 156 161 170 169 124 148 169 166 158 188 180 181 136 129 125 131 148 152 154 171 180 171 150 156
226 280 266 288 271 260 247 256 274 253 268 294 310 299 314 309 315 309 316 316 6 61 328 284 48 35 49 226 232 218 278 30 170 27 46 19 69 98 177 210 251 285 280 309 347 7 31 34 29 12 20 92 108 103 67 55 54 45 128 193 161 162 156 151 161 158 151 119 129 147 225 125 95 114 130 126 120 120 139 185 221 170 169 185 191 169 169